Marysville, OH

4:50 AM EST on January 17, 2017 (GMT -0500)
Marysville

Weather History for KMRT - October, 2013

Change the Weather History Date:

Sunday, October 6, 2013

  Actual Average (KDLZ) Record (KDLZ)
Temperature  
Mean Temperature 62 °F -  
Max Temperature 75 °F 69 °F 85 °F (1941)
Min Temperature 50 °F 42 °F 27 °F (1965)
Degree Days  
Heating Degree Days 2    
Growing Degree Days 12 (Base 50)    
Moisture  
Dew Point 60 °F    
Average Humidity 86    
Maximum Humidity 93    
Minimum Humidity 64    
Precipitation  
Precipitation 1.69 in - - ()
Sea Level Pressure  
Sea Level Pressure 29.85 in    
Wind  
Wind Speed 9 mph (SW)    
Max Wind Speed 17 mph    
Max Gust Speed 30 mph    
Visibility 8 miles    
Events      
Averages and records for this station are not official NWS values.
T = Trace of Precipitation, MM = Missing Value Source: NWS Daily Summary

Daily Weather History Graph

Daily Weather History Graph

Search for Another Location

Airport or City:

Trip Planner

Search our weather history database for the weather conditions in past years. The results will help you decide how hot, cold, wet, or windy it might be!

Date:

Astronomy

Oct. 06, 2013 Rise Set
Actual Time 7:35 AM EDT 7:07 PM EDT
Civil Twilight 7:07 AM EDT 7:34 PM EDT
Nautical Twilight 6:36 AM EDT 8:05 PM EDT
Astronomical Twilight 6:04 AM EDT 8:37 PM EDT
Moon 9:18 AM EDT (10/6) 8:05 PM EDT (10/6)
Length of Visible Light 12h 26m
Length of Day
11h 32m
Waxing Crescent, 3% of the Moon is Illuminated
Oct 6
Waxing Crescent
Oct 11
First Quarter
Oct 18
Full
Oct 26
Last Quarter
Nov 3
New

Hourly Weather History & Observations

Time (EDT) Temp. Dew Point Humidity Pressure Visibility Wind Dir Wind Speed Gust Speed Precip Events Conditions
12:13 AM 68.0 °F 65.3 °F 91% 29.95 in 5.0 mi SSW 10.4 mph - 0.01 in   Overcast
12:33 AM 68.0 °F 65.3 °F 91% 29.95 in 7.0 mi SSW 11.5 mph - 0.01 in   Overcast
12:54 AM 68.0 °F 64.8 °F 89% 29.95 in 7.0 mi SW 10.4 mph - 0.01 in   Overcast
1:13 AM 67.6 °F 64.8 °F 90% 29.96 in 4.0 mi SW 9.2 mph - 0.02 in   Overcast
1:33 AM 67.3 °F 64.4 °F 90% 29.96 in 5.0 mi SW 11.5 mph - 0.04 in   Overcast
1:54 AM 66.7 °F 63.1 °F 88% 29.96 in 5.0 mi WSW 6.9 mph - 0.07 in   Overcast
2:13 AM 66.2 °F 63.0 °F 89% 29.95 in 4.0 mi WSW 6.9 mph - 0.02 in   Overcast
2:33 AM 65.7 °F 63.0 °F 91% 29.95 in 4.0 mi SW 6.9 mph - 0.05 in   Overcast
2:54 AM 65.3 °F 62.8 °F 92% 29.94 in 5.0 mi WSW 4.6 mph - 0.08 in   Overcast
3:13 AM 65.3 °F 62.8 °F 92% 29.94 in 7.0 mi SW 5.8 mph - 0.01 in   Overcast
3:33 AM 65.3 °F 62.6 °F 91% 29.92 in 10.0 mi SW 5.8 mph - 0.02 in   Overcast
3:53 AM 64.9 °F 62.6 °F 92% 29.92 in 10.0 mi SSW 5.8 mph - 0.02 in   Overcast
4:14 AM 64.8 °F 62.6 °F 93% 29.91 in 7.0 mi SSW 6.9 mph - N/A   Mostly Cloudy
4:34 AM 64.8 °F 62.6 °F 93% 29.89 in 7.0 mi South 3.5 mph - 0.01 in   Overcast
4:53 AM 64.8 °F 62.6 °F 93% 29.87 in 10.0 mi Calm Calm - 0.01 in   Overcast
5:13 AM 64.6 °F 62.6 °F 93% 29.87 in 10.0 mi Calm Calm - N/A   Overcast
5:34 AM 64.6 °F 62.6 °F 93% 29.88 in 10.0 mi South 4.6 mph - N/A   Overcast
5:53 AM 64.4 °F 62.2 °F 93% 29.88 in 10.0 mi South 4.6 mph - N/A   Overcast
6:14 AM 64.8 °F 62.8 °F 93% 29.88 in 10.0 mi South 5.8 mph - N/A   Overcast
6:34 AM 65.3 °F 63.1 °F 93% 29.88 in 10.0 mi South 9.2 mph - N/A   Overcast
6:53 AM 65.3 °F 63.3 °F 93% 29.88 in 10.0 mi South 11.5 mph - N/A   Overcast
7:14 AM 65.5 °F 63.5 °F 93% 29.91 in 10.0 mi West 11.5 mph 18.4 mph N/A   Overcast
7:34 AM 65.8 °F 62.8 °F 90% 29.90 in 10.0 mi WSW 6.9 mph - N/A   Overcast
7:53 AM 65.5 °F 62.1 °F 89% 29.90 in 10.0 mi WSW 8.1 mph - N/A   Overcast
8:13 AM 65.3 °F 62.1 °F 89% 29.89 in 10.0 mi SW 5.8 mph - N/A   Overcast
8:34 AM 65.3 °F 62.1 °F 89% 29.88 in 10.0 mi SSW 5.8 mph - N/A   Overcast
8:53 AM 65.3 °F 62.1 °F 89% 29.88 in 10.0 mi SSW 6.9 mph - N/A   Mostly Cloudy
9:13 AM 66.2 °F 62.6 °F 88% 29.88 in 10.0 mi SSW 9.2 mph - N/A   Mostly Cloudy
9:34 AM 66.6 °F 63.0 °F 88% 29.88 in 10.0 mi SSW 9.2 mph - N/A   Overcast
9:53 AM 66.9 °F 62.6 °F 86% 29.90 in 10.0 mi SW 10.4 mph 17.3 mph N/A   Overcast
10:13 AM 66.4 °F 62.8 °F 88% 29.90 in 10.0 mi WSW 8.1 mph - N/A   Overcast
10:33 AM 65.3 °F 61.3 °F 87% 29.89 in 4.0 mi WSW 9.2 mph - N/A   Overcast
10:53 AM 64.6 °F 61.2 °F 89% 29.88 in 2.5 mi SSW 5.8 mph - 0.02 in   Overcast
11:14 AM 64.4 °F 61.0 °F 89% 29.88 in 2.0 mi SW 8.1 mph - 0.03 in   Overcast
11:33 AM 64.6 °F 61.5 °F 90% 29.88 in 7.0 mi South 8.1 mph - 0.05 in   Overcast
11:53 AM 65.1 °F 61.9 °F 89% 29.87 in 10.0 mi South 10.4 mph - 0.06 in   Overcast
12:14 PM 66.2 °F 62.1 °F 86% 29.87 in 10.0 mi SSW 9.2 mph - N/A   Overcast
12:33 PM 67.8 °F 63.3 °F 85% 29.86 in 10.0 mi South 10.4 mph - N/A   Mostly Cloudy
12:53 PM 68.0 °F 62.8 °F 83% 29.84 in 10.0 mi South 11.5 mph - N/A   Mostly Cloudy
1:14 PM 69.4 °F 64.2 °F 83% 29.82 in 10.0 mi South 6.9 mph 16.1 mph N/A   Overcast
1:33 PM 70.0 °F 63.5 °F 80% 29.81 in 10.0 mi South 13.8 mph 17.3 mph N/A   Overcast
1:53 PM 71.1 °F 63.5 °F 77% 29.80 in 10.0 mi SSW 16.1 mph 20.7 mph N/A   Mostly Cloudy
2:14 PM 71.6 °F 61.9 °F 71% 29.78 in 10.0 mi SSW 11.5 mph 19.6 mph N/A   Mostly Cloudy
2:33 PM 72.7 °F 62.6 °F 71% 29.78 in 10.0 mi SSW 11.5 mph 20.7 mph N/A   Mostly Cloudy
2:53 PM 73.4 °F 61.7 °F 67% 29.77 in 10.0 mi SSW 15.0 mph 21.9 mph N/A   Mostly Cloudy
3:14 PM 73.4 °F 61.7 °F 67% 29.76 in 10.0 mi SSW 12.7 mph 21.9 mph N/A   Mostly Cloudy
3:33 PM 73.9 °F 61.7 °F 65% 29.75 in 10.0 mi SSW 12.7 mph 25.3 mph N/A   Mostly Cloudy
3:53 PM 74.3 °F 62.1 °F 65% 29.74 in 10.0 mi SSW 13.8 mph 21.9 mph N/A   Mostly Cloudy
4:14 PM 73.2 °F 62.1 °F 68% 29.73 in 10.0 mi SSW 13.8 mph 23.0 mph N/A   Overcast
4:33 PM 75.2 °F 62.2 °F 64% 29.72 in 10.0 mi SSW 9.2 mph 20.7 mph N/A   Overcast
4:53 PM 74.3 °F 61.9 °F 65% 29.72 in 10.0 mi South 11.5 mph 18.4 mph N/A   Overcast
5:14 PM 74.1 °F 61.9 °F 65% 29.71 in 10.0 mi SSW 17.3 mph 26.5 mph N/A   Overcast
5:33 PM 68.2 °F 64.2 °F 87% 29.73 in 0.5 mi SW 15.0 mph 29.9 mph 0.29 in   Overcast
5:53 PM 67.8 °F 64.2 °F 88% 29.75 in 1.2 mi West 15.0 mph 20.7 mph 0.51 in   Overcast
6:13 PM 63.5 °F 60.4 °F 90% 29.75 in - West 8.1 mph - 0.20 in   Unknown
6:34 PM 62.6 °F 60.1 °F 91% 29.76 in - West 5.8 mph - 0.50 in   Unknown
6:53 PM 62.1 °F 59.9 °F 93% 29.77 in 10.0 mi WSW 6.9 mph - 0.53 in   Overcast
7:13 PM 61.9 °F 59.2 °F 91% 29.78 in 3.0 mi WSW 12.7 mph 20.7 mph 0.02 in   Overcast
7:34 PM 60.8 °F 57.2 °F 88% 29.78 in 10.0 mi West 11.5 mph 20.7 mph 0.03 in   Overcast
7:53 PM 59.2 °F 55.0 °F 86% 29.78 in 10.0 mi West 9.2 mph - 0.03 in   Overcast
8:13 PM 57.9 °F 53.1 °F 84% 29.79 in 7.0 mi West 11.5 mph - N/A   Overcast
8:34 PM 57.2 °F 51.8 °F 82% 29.80 in 10.0 mi West 9.2 mph - N/A   Overcast
8:53 PM 56.3 °F 52.0 °F 85% 29.81 in 5.0 mi West 10.4 mph - 0.02 in   Overcast
9:13 PM 56.3 °F 52.5 °F 87% 29.81 in 4.0 mi West 9.2 mph - 0.01 in   Overcast
9:34 PM 54.9 °F 50.7 °F 86% 29.81 in 3.0 mi West 11.5 mph - 0.06 in   Overcast
9:53 PM 53.2 °F 48.7 °F 85% 29.82 in 5.0 mi WSW 10.4 mph 16.1 mph 0.08 in   Overcast
10:13 PM 52.2 °F 48.2 °F 86% 29.82 in 4.0 mi WSW 4.6 mph - 0.02 in   Overcast
10:34 PM 51.1 °F 47.7 °F 88% 29.82 in 2.5 mi WSW 5.8 mph - 0.13 in   Overcast
10:53 PM 50.9 °F 48.2 °F 90% 29.81 in 3.0 mi WSW 4.6 mph - 0.18 in   Overcast
11:13 PM 51.4 °F 49.1 °F 92% 29.82 in 3.0 mi SSW 3.5 mph - 0.03 in   Overcast
11:34 PM 51.8 °F 49.5 °F 92% 29.81 in 7.0 mi SW 4.6 mph - 0.05 in   Overcast
11:53 PM 51.8 °F 49.5 °F 92% 29.81 in 5.0 mi SW 4.6 mph - 0.07 in   Overcast